World > North America > United States > Illinois   City of Marion, IL

Marion, Illinois Regional Weather

Lat: 37.73N, Lon: 88.94W
Wx Zone: ILZ085Web Search
Marion Weather Warning NWS WEATHER ALERT FOR THE MARION, IL AREA - Issued: 329 AM CST Wed Dec 2 2020 Marion Weather Warning  

Helpful Tip: Type the letters wx in the search engine next time you need to find us.

Feedback
Marion Weather Map
UTC Time: 12/2/2020, 19:21
Your Time:

Marion, IL Regional Weather

Expires:202012022000;;737506
ASUS43 KLOT 021909
RWRIL 

ILLINOIS REGIONAL WEATHER ROUNDUP
NATIONAL WEATHER SERVICE CHICAGO/ROMEOVILLE IL
100 PM CST WED DEC 02 2020

NOTE: "FAIR" INDICATES FEW OR NO CLOUDS BELOW 12,000 FEET WITH NO
SIGNIFICANT WEATHER AND/OR OBSTRUCTIONS TO VISIBILITY.

* THESE STATIONS ARE NOT UNDER NWS QUALITY CONTROL. THEY ALSO MAY NOT
  REPORT WEATHER SUCH AS PRECIPITATION OR FOG.


ILZ064>066-069>071-074>076-080>082-084>086-088>090-092>094-022000-
SOUTH-CENTRAL ILLINOIS
  
CITY           SKY/WX    TMP DP  RH WIND       PRES   REMARKS
CARBONDALE     MOSUNNY   49  25  39 NE3       30.35F                  
CAIRO*         MOSUNNY   49  26  39 MISG      30.35F                  
EFFINGHAM*     SUNNY     44  20  39 CALM      30.37F                  
MARION         SUNNY     46  27  46 CALM      30.37F                  
MT. VERNON     MOSUNNY   45  24  43 E3        30.37F                  
CENTRALIA*     SUNNY     46  24  41 CALM      30.36S                  
SALEM*         SUNNY     46  20  35 CALM      30.36F                  
$$


SKY/WX - Weather  TMP - Temperature  DP - Dew Point  RH - Relative Humidity
WIND - Wind Direction/Speed PRES - Barometric Pressure VSB - Visibility
WCI - Wind Chill Index E13G22 Wind - East Wind 13 mph/Gusts of 22 mph